[[{"header":{"parameterUnit":"m.s-1","parameterCategory":1,"la1":30.2992,"la2":30.254,"lo1":-89.0895,"lo2":-89.0443,"dy":0.0025,"dx":0.0025,"nx":19,"ny":19,"refTime":"2026-05-01T03:00:00:Z","depth":0,"parameterNumber":2,"parameterNumberName":"U-component_of_WINDS"},"data":[0,0,0,-3.2672,-3.2675,-3.2793,-3.2794,-3.2958,-3.296,0,0,0,0,0,0,0,0,0,0,0,-3.2647,-3.2648,-3.2672,-3.2675,-3.2793,-3.2794,-3.2958,-3.296,0,0,0,0,0,0,0,0,0,0,0,-3.2646,-3.2648,-3.2649,-3.2676,-3.2793,-3.2794,-3.2957,-3.2863,0,0,0,0,0,0,0,0,0,0,-3.2746,-3.2732,-3.2647,-3.265,-3.2676,-3.2793,-3.2794,-3.2858,-3.2869,-3.291,0,-3.2951,0,-3.2958,-3.2972,-3.2972,0,0,0,-3.2668,-3.2723,-3.2746,-3.265,-3.2678,-3.2793,-3.2738,-3.2864,-3.2876,-3.2925,-3.2953,-3.2959,-3.2961,-3.2973,-3.2974,-3.3238,-3.3239,0,0,-3.2662,-3.2673,-3.2738,-3.2755,-3.2739,-3.2734,-3.2742,-3.2871,-3.2903,-3.2954,-3.2962,-3.2963,-3.2974,-3.2975,-3.3236,-3.3238,0,0,0,-3.2648,-3.2669,-3.2688,-3.2748,-3.2769,-3.2738,-3.2746,-3.2897,-3.2902,-3.2964,-3.2965,-3.2975,-3.2977,-3.3235,-3.3237,-3.3326,0,0,0,-3.2643,-3.266,-3.2686,-3.2694,-3.2767,-3.2835,-3.2769,-3.2893,-3.2908,-3.2965,-3.2975,-3.2979,-3.3233,-3.3236,-3.332,-3.3367,0,0,0,-3.2636,-3.2659,-3.268,-3.2694,-3.2746,-3.2832,-3.2845,-3.2896,-3.2909,-3.2972,-3.2979,-3.3232,-3.3235,-3.3314,-3.3358,-3.3439,0,0,0,-3.2631,-3.2758,-3.2681,-3.2823,-3.2745,-3.2886,-3.2844,-3.2949,-3.3014,-3.2976,-3.3233,-3.3237,-3.3313,-3.3352,-3.3433,-3.3511,-3.3544,0,0,-3.2797,-3.2778,-3.286,-3.2796,-3.2954,-3.2867,-3.3038,-3.3087,-3.3082,-3.3186,-3.3192,-3.3322,-3.3357,-3.3438,-3.3724,-3.3751,0,0,0,-3.2917,-3.2977,-3.3016,-3.3078,-3.3118,-3.3156,-3.3177,-3.3194,-3.3282,-3.3138,-3.3373,-3.3393,-3.344,-3.3477,-3.3499,-3.3539,-3.3254,-3.3254,-3.3253,-3.317,-3.3157,-3.3292,-3.3292,-3.3353,-3.3372,-3.342,-3.3447,-3.3416,-3.3471,-3.3503,-3.3678,-3.3721,-3.3738,-3.3779,-3.3542,-3.3542,-3.3542,-3.3543,-3.3413,-3.3495,-3.3449,-3.3564,-3.3549,-3.3645,-3.3667,-3.3642,-3.3728,-3.3654,-3.3695,-3.3616,-3.3767,-3.3803,-3.3549,-3.3548,-3.3547,-3.3547,-3.3546,-3.3578,-3.3615,-3.3634,-3.3721,-3.3789,-3.3784,-3.3869,-3.3851,-3.3836,-3.3876,-3.3906,-3.3905,-3.3901,-3.3891,-3.3892,-3.3893,-3.3893,-3.3894,-3.3894,-3.3742,-3.376,-3.3834,-3.3886,-3.3922,-3.3968,-3.3987,-3.4022,-3.4056,-3.4037,-3.4037,-3.4,-3.3785,-3.3731,-3.3903,-3.3902,-3.39,-3.39,-3.3899,-3.3996,-3.3935,-3.4049,-3.4086,-3.4144,-3.4212,-3.4187,-3.426,-3.4286,-3.4328,-3.4282,-3.4125,-3.4104,-3.4086,-3.4042,-3.4284,-3.4284,-3.4284,-3.4284,-3.4135,-3.4122,-3.4235,-3.4294,-3.435,-3.4339,-3.4466,-3.4481,-3.4487,-3.4501,-3.4463,-3.4402,-3.4385,-3.4374,-3.435,-3.4308,-3.4613,-3.4614,-3.4614,-3.429,-3.4281,-3.4395,-3.44,-3.4443,-3.4479,-3.4598,-3.4667,-3.466,-3.4627,-3.4512,-3.4499,-3.44,-3.4369,-3.4335,-3.4298,-3.4221,0,0]},{"header":{"parameterUnit":"m.s-1","parameterCategory":1,"la1":30.2992,"la2":30.254,"lo1":-89.0895,"lo2":-89.0443,"dy":0.0025,"dx":0.0025,"nx":19,"ny":19,"refTime":"2026-05-01T03:00:00:Z","depth":0,"parameterNumber":3,"parameterNumberName":"V-component_of_WINDS"},"data":[0,0,0,-3.0722,-3.0721,-3.0676,-3.0675,-3.0619,-3.0619,0,0,0,0,0,0,0,0,0,0,0,-3.074,-3.074,-3.0722,-3.0721,-3.0676,-3.0675,-3.062,-3.0619,0,0,0,0,0,0,0,0,0,0,0,-3.074,-3.074,-3.074,-3.0721,-3.0676,-3.0675,-3.062,-3.0653,0,0,0,0,0,0,0,0,0,0,-3.0696,-3.0717,-3.074,-3.0739,-3.0721,-3.0676,-3.0675,-3.0654,-3.0651,-3.0642,0,-3.0638,0,-3.0628,-3.0616,-3.0615,0,0,0,-3.0718,-3.072,-3.0705,-3.0739,-3.0721,-3.0676,-3.0695,-3.0652,-3.0648,-3.0637,-3.0637,-3.0635,-3.0627,-3.0615,-3.0615,-3.0583,-3.0583,0,0,-3.072,-3.0733,-3.0707,-3.0702,-3.0712,-3.0697,-3.0694,-3.065,-3.0649,-3.0637,-3.0633,-3.0626,-3.0615,-3.0615,-3.0583,-3.0583,0,0,0,-3.073,-3.0735,-3.072,-3.0705,-3.0696,-3.0695,-3.0692,-3.0651,-3.0645,-3.0633,-3.0625,-3.0615,-3.0614,-3.0583,-3.0583,-3.0597,0,0,0,-3.0731,-3.0741,-3.0722,-3.0729,-3.0697,-3.0674,-3.0695,-3.0648,-3.0643,-3.0625,-3.0615,-3.0614,-3.0583,-3.0583,-3.0596,-3.0601,0,0,0,-3.0741,-3.0742,-3.0737,-3.073,-3.0711,-3.0674,-3.0666,-3.0647,-3.0638,-3.0615,-3.0613,-3.0583,-3.0583,-3.0596,-3.06,-3.0596,0,0,0,-3.0756,-3.075,-3.0738,-3.0728,-3.0712,-3.0684,-3.0666,-3.0644,-3.0626,-3.0614,-3.0583,-3.0583,-3.0596,-3.06,-3.0596,-3.0595,-3.0596,0,0,-3.0756,-3.075,-3.0744,-3.0731,-3.071,-3.069,-3.0669,-3.0639,-3.0624,-3.0597,-3.0596,-3.0597,-3.06,-3.0596,-3.0597,-3.0598,0,0,0,-3.0748,-3.0743,-3.0735,-3.0719,-3.0697,-3.0678,-3.065,-3.0639,-3.0615,-3.0614,-3.0594,-3.0595,-3.0592,-3.0591,-3.0592,-3.0587,-3.0583,-3.0583,-3.0583,-3.0767,-3.0749,-3.0736,-3.0712,-3.0697,-3.0668,-3.0653,-3.0632,-3.0618,-3.0613,-3.0605,-3.0608,-3.0607,-3.0608,-3.0604,-3.0603,-3.0603,-3.0603,-3.0603,-3.0765,-3.0755,-3.0736,-3.0717,-3.0697,-3.0679,-3.065,-3.064,-3.062,-3.0613,-3.0609,-3.0603,-3.061,-3.0605,-3.0604,-3.0604,-3.0604,-3.0604,-3.0604,-3.0775,-3.0767,-3.0754,-3.0729,-3.0711,-3.0685,-3.0667,-3.0649,-3.0631,-3.0628,-3.0616,-3.0616,-3.0613,-3.0624,-3.0624,-3.0624,-3.0624,-3.0624,-3.0624,-3.079,-3.0775,-3.0763,-3.0739,-3.0725,-3.0706,-3.0676,-3.0661,-3.064,-3.0628,-3.0628,-3.0613,-3.0614,-3.0614,-3.0624,-3.0624,-3.0624,-3.0624,-3.0624,-3.0794,-3.079,-3.0771,-3.0758,-3.0727,-3.071,-3.0687,-3.0659,-3.0644,-3.0635,-3.0621,-3.0625,-3.0617,-3.0617,-3.0617,-3.0626,-3.0626,-3.0626,-3.0626,-3.0802,-3.0797,-3.0773,-3.0753,-3.0731,-3.0709,-3.0685,-3.0661,-3.0634,-3.0623,-3.0619,-3.0618,-3.0618,-3.061,-3.061,-3.0609,-3.0617,-3.0617,-3.0617,-3.0803,-3.0795,-3.0779,-3.0756,-3.073,-3.0707,-3.0684,-3.066,-3.0629,-3.0616,-3.0614,-3.0615,-3.0612,-3.0612,-3.06,-3.0599,-3.0598,0,0]}]]